SCP
0 0 0 0 0 0 0 0 0 0 0 0 0 0 0 0 0 0 0 0 0 0 0 0 0 0 0 0 0 0 0 0 0 0 0 0 0 0
0 0 0 0 0 0 0 0 0 0 0 0 0 0 0 0 0 0 0 0 0 0 0 0 0 0 0 0 0 0 0 0 0 0 0 0 0 0
0 0 0 0 0 0 0 0 0 0 0 0 0 0 0 0 0 0 0 0 0 0 0 0 0 0 0 0 0 0 0 0 0 0 0 0 0 0
0 0 0 0 0 0 0 0 0 0 0 0 0 0 0 0 0 0 0 0 0 0 0 0 0 0 0 0 0 0 0 0 0 0 0 0 0 0
0 0 0 0 0 0 0 0 0 0 0 0 0 0 0 0 0 0 0 0 0 0 0 0 0 0 0 0 0 0 0 0 0 0 0 0 0 0
0 0 0 0 0 0 0 0 0 0 0 0 0 0 0 0 0 0 0 0 0 0 0 0 0 0 0 0 0 0 0 0 0 0 0 0 0 0
0 0 0 0 0 0 0 0 0 0 0 0 0 0 0 0 0 0 0 0 0 0 0 0 0 0 0 0 0 0 0 0 0 0 0 0 0 0
0 0 0 0 0 0 0 0 0 0 0 0 0 0 0 0 0 0 0 0 0 0 0 0 0 0 0 0 0 0 0 0 0 0 0 0 0 0
0 0 0 0 0 0 0 0 0 0 0 0 0 0 0 0 0 0 0 0 0 0 0 0 0 0 0 0 0 0 0 0 0 0 0 0 0 0
0 0 0 0 0 0 0 0 0 0 0 0 0 0 0 0 0 0 0 0 0 0 0 0 0 0 0 0 0 0 0 0 0 0 0 0 0 0
0 0 0 0 0 0 0 0 0 0 0 0 0 0 0 0 0 0 0 0 0 0 0 0 0 0 0 0 0 0 0 0 0 0 0 0 0 0
0 0 0 0 0 0 0 0 0 0 0 0 0 0 0 0 0 0 0 0 0 0 0 0 0 0 0 0 0 0 0 0 0 0 0 0 0 0
0 0 0 0 0 0 0 0 0 0 0 0 0 0 0 0 0 0 0 0 0 0 0 0 0 0 0 0 0 0 0 0 0 0 0 0 0 0
0 0 0 0 0 0 0 0 0 0 0 0 0 0 0 0 0 0 0 0 0 0 0 0 0 0 0 0 0 0 0 0 0 0 0 0 0 0
0 0 0 0 0 0 0 0 0 0 0 0 0 0 0 0 0 0 0 0 0 0 0 0 0 0 0 0 0 0 0 0 0 0 0 0 0 0
0 0 0 0 0 0 0 0 0 0 0 0 0 0 0 0 0 0 0 0 0 0 0 0 0 0 0 0 0 0 0 0 0 0 0 0 0 0
0 0 0 0 0 0 0 0 0 0 0 0 0 0 0 0 0 0 0 0 0 0 0 0 0 0 0 0 0 0 0 0 0 0 0 0 0 0
0 0 0 0 0 0 0 0 0 0 0 0 0 0 0 0 0 0 0 0 0 0 0 0 0 0 0 0 0 0 0 0 0 0 0 0 0 0
0 0 0 0 0 0 0 0 0 0 0 0 0 0 0 0 0 0 0 0 0 0 0 0 0 0 0 0 0 0 0 0 0 0 0 0 0 0
0 0 0 0 0 0 0 0 0 0 0 0 0 0 0 0 0 0 0 0 0 0 0 0 0 0 0 0 0 0 0 0 0 0 0 0 0 0
0 0 0 0 0 0 0 0 0 0 0 0 0 0 0 0 0 0 0 0 0 0 0 0 0 0 0 0 0 0 0 0 0 0 0 0 0 0
0 0 0 0 0 0 0 0 0 0 0 0 0 0 0 0 0 0 0 0 0 0 0 0 0 0 0 0 0 0 0 0 0 0 0 0 0 0
0 0 0 0 0 0 0 0 0 0 0 0 0 0 0 0 0 0 0 0 0 0 0 0 0 0 0 0 0 0 0 0 0 0 0 0 0 0
Wind_Speed
2 2 2 2 2 2 2 2 2 3 4 3 2 1 0 1 4 2 2 5 9 10 10 10 10 10 11 11 12 14 14 14 14 15 15 16 17 18
1 1 2 2 3 3 2 2 2 2 3 3 3 2 2 3 2 1 3 5 9 12 13 13 12 12 11 12 12 13 13 14 15 15 16 16 17 17
2 1 1 2 2 3 3 3 3 2 3 4 3 3 3 3 3 3 4 4 6 12 14 14 14 14 13 13 13 13 13 14 14 15 15 16 17 17
2 2 2 2 2 3 3 4 3 3 3 5 4 4 4 4 4 5 5 6 4 8 12 14 14 15 14 14 13 13 13 14 14 14 15 15 16 17
2 2 3 3 3 3 3 4 3 5 3 4 5 4 4 4 4 5 5 4 7 8 9 12 14 15 15 15 15 14 14 14 14 14 15 15 15 16
3 3 3 3 4 3 4 4 4 4 4 4 5 4 4 3 2 2 3 3 4 6 6 6 10 14 16 16 16 16 15 15 15 15 15 15 15 15
4 4 5 5 5 4 5 3 4 3 4 4 5 4 4 3 3 3 4 4 4 4 4 4 4 5 8 13 16 17 16 16 16 16 15 15 15 15
4 4 5 6 8 10 10 9 7 6 5 5 5 5 5 5 4 5 4 4 5 3 3 5 5 4 5 6 12 16 17 18 17 17 16 15 15 15
5 5 6 6 4 4 7 10 11 13 12 8 8 8 7 6 5 6 5 6 6 5 5 7 6 6 6 7 11 14 16 17 17 17 17 17 16 16
7 7 6 6 7 4 5 5 6 7 9 9 9 10 9 7 6 6 7 7 7 7 7 8 6 6 7 6 9 12 14 16 17 17 17 17 16 16
8 8 7 7 7 7 6 6 7 7 10 11 12 13 14 14 10 6 6 7 9 7 5 6 6 5 5 6 7 12 14 15 16 17 17 17 16 14
6 7 9 9 8 8 6 6 8 8 7 9 8 10 11 12 15 11 9 9 9 7 6 5 5 4 5 5 4 4 6 12 16 16 17 17 15 9
6 5 3 5 8 10 9 8 10 9 7 8 8 8 7 7 8 9 9 9 9 8 6 5 5 4 5 5 4 5 5 5 6 8 13 16 15 13
6 5 3 4 7 10 9 12 14 10 7 8 8 7 7 6 6 6 8 9 9 10 8 7 6 6 6 7 6 5 5 5 5 5 6 10 14 16
7 9 10 11 10 9 13 15 11 8 8 9 8 8 7 7 6 5 6 7 8 9 10 9 9 7 7 8 8 6 5 5 5 5 5 6 6 7
8 9 12 15 14 14 12 10 9 9 9 9 8 7 6 6 6 5 5 5 6 7 8 9 9 9 9 9 8 8 6 6 5 5 5 6 5 6
3 5 6 7 7 6 7 7 7 7 8 8 8 7 7 6 6 5 5 5 6 7 7 6 7 8 9 8 8 8 7 7 6 6 5 6 6 6
2 6 7 7 8 8 7 6 6 6 6 6 6 6 6 6 6 5 5 6 7 7 7 6 5 5 5 7 10 10 8 8 6 6 6 6 7 6
4 8 8 8 7 7 7 6 6 5 5 5 5 6 6 6 6 6 6 6 7 7 6 6 5 5 7 9 7 10 9 7 6 6 6 6 7 6
7 8 7 6 6 6 6 6 6 5 5 5 5 5 5 5 6 6 6 7 7 7 6 6 6 6 8 8 7 6 9 8 7 7 6 5 5 6
7 6 6 6 6 6 5 5 6 5 6 6 5 6 5 5 6 6 6 8 7 7 7 7 7 8 6 4 6 7 6 9 9 6 6 5 5 5
6 6 5 5 5 5 5 5 6 6 6 6 5 5 5 5 6 8 7 6 6 6 7 6 5 4 4 6 7 8 7 6 7 9 9 8 5 5
5 5 5 6 6 4 5 6 7 6 5 5 5 5 5 5 5 6 6 6 6 7 6 6 5 4 5 6 7 7 8 7 5 4 5 8 11 10
Wind_Direction
333 352 336 326 324 323 321 315 311 313 314 325 349 26 117 162 168 223 247 221 219 225 230 234 237 238 239 240 239 238 237 236 234 232 231 229 229 230
254 328 329 324 340 323 312 306 298 292 295 309 311 328 357 320 249 262 271 255 233 231 231 232 232 234 235 236 236 236 237 236 234 233 231 229 227 227
305 309 305 303 310 319 320 315 309 307 297 299 303 309 301 276 266 258 262 250 241 235 231 228 229 230 232 234 235 235 235 236 236 235 234 232 229 226
283 294 294 295 304 291 302 303 304 293 276 286 290 284 279 272 251 245 263 268 266 257 235 226 225 227 229 231 233 234 233 234 235 235 235 235 234 232
280 283 285 290 288 288 292 290 295 300 298 290 290 283 271 269 263 260 264 267 272 274 246 228 226 227 228 229 230 231 232 231 232 233 234 236 236 236
272 274 274 272 272 277 279 279 288 296 293 288 283 285 281 283 291 284 283 269 275 283 282 258 233 228 230 231 232 231 231 231 231 231 233 235 236 236
264 264 263 257 251 254 273 287 297 293 296 295 294 296 297 312 306 302 294 290 276 272 275 273 256 235 232 236 237 236 231 230 229 230 231 233 235 236
279 274 273 253 236 234 244 250 253 262 274 282 288 289 295 301 307 301 297 298 293 292 299 287 278 264 249 234 229 228 227 226 227 228 230 230 232 233
279 276 279 285 273 248 240 240 246 248 243 249 265 272 278 284 292 294 289 286 280 282 285 278 270 267 264 267 248 230 225 225 225 225 226 228 229 231
263 262 260 267 273 268 275 270 259 256 247 239 243 253 260 261 263 269 271 275 268 263 253 263 262 257 263 262 258 241 230 227 225 225 225 226 226 228
255 254 250 249 242 237 248 262 270 271 270 260 244 248 254 260 258 266 268 270 274 270 253 256 264 264 258 256 255 249 236 229 228 228 227 228 228 229
262 255 248 243 241 231 239 255 265 269 279 288 277 265 258 255 248 237 244 255 265 271 260 258 265 273 275 259 255 251 237 235 232 233 231 230 226 224
273 275 265 244 235 234 235 247 256 266 279 279 276 269 259 251 246 234 228 234 248 256 263 262 269 269 263 272 271 260 248 240 227 233 234 234 226 214
264 274 268 269 263 254 248 252 257 265 268 269 269 269 269 267 259 251 243 235 236 246 257 260 263 263 268 272 272 268 260 251 238 230 225 223 225 224
259 273 284 282 279 268 254 252 254 252 253 259 264 265 264 265 266 263 258 252 247 247 252 245 245 250 250 257 265 265 268 264 249 240 237 227 218 212
255 271 274 269 263 260 263 254 238 239 244 254 261 263 264 264 263 258 260 260 262 261 249 242 240 241 248 250 253 259 257 256 254 248 243 244 235 221
286 268 270 270 267 260 254 250 246 241 240 246 256 263 266 267 265 259 257 262 264 268 268 255 242 236 237 241 250 252 254 255 251 246 243 249 245 237
264 269 272 273 275 278 279 275 266 260 256 255 254 255 261 266 268 264 257 257 261 263 265 263 258 260 259 251 233 245 251 252 251 248 244 248 253 244
247 264 268 271 275 277 279 281 281 278 268 265 264 265 265 267 267 267 265 263 264 264 263 260 253 249 258 265 254 227 237 248 250 250 245 241 248 248
248 259 265 270 276 280 284 286 288 289 283 277 273 270 268 268 269 270 269 269 271 271 268 261 252 245 245 257 268 264 231 237 245 248 250 250 249 251
266 267 271 275 279 282 285 287 287 286 284 283 280 278 275 275 275 273 270 270 267 269 270 266 258 252 250 254 264 264 254 236 234 238 243 248 253 252
274 282 283 284 287 287 288 288 289 287 289 288 286 285 283 278 278 277 273 273 270 268 271 272 272 266 253 250 259 266 268 262 246 241 244 238 233 239
284 287 293 298 299 296 296 293 294 298 300 299 296 292 289 285 282 282 282 278 276 273 273 275 277 269 259 252 258 264 268 268 263 253 249 244 239 241